Starlink 32424

operational
NORAD ID: 61548 Int'l Des: 2024-184 Owner: SPXS Country: US Constellation: starlink
LEOCIRCULAR

About Starlink 32424

Description loading...

Live Position

Loading 3D Globe...

Upcoming Passes

Altitude History

Altitude vs Time

uPlot chart will show altitude changes over time

Two-Line Element Set

1 61548U 24184S 25306.12560801 .00002400 00000-0 93156-4 0 9996
2 61548 53.1605 246.6572 0001067 84.6774 275.4348 15.30193530 58970
Epoch: Nov 2, 2025 • Age: 16 hours

Current Status

Altitude 475.2 km
Velocity 7.63 km/s
Sub-Earth Point 14.51°N, 79.14°E
Launch Date Oct 15, 2024
Age 1 years
Type internet

Technical Details

Classification Payload
Mass 730.00 kg
Dry Mass 700.00 kg
Total Mass 730.00 kg
Length 0.30 m
Diameter 4.10 m
Span 29.00 m
Shape Box + pan
Manufacturer SPXS
Bus Type Starlink V2M
Phase Status In Orbit
Owner/State SPXS/US

Large Constellations

Loading constellations...